Location: Ash Shall?l al Awwal
(24.0167°N, 32.8667°E)
Time: 11:03:10
(UTC+00:00)

Hubble Space Telescope - Pass Details

Date: 02 March 2021
Orbit: 535 x 539 km, 28.5° (Epoch: 16 April)

Event Time Altitude Azimuth Distance (km) Brightness Sun altitude
Rises 17:40:00 0° 246° (WSW) 2,661 5.3 -25.5°
Reaches altitude 10° 17:42:16 10° 244° (WSW) 1,773 4.2 -26.0°
Enters shadow 17:44:57 39° 234° (SW) 805 1.9 -26.6°
